sat.trackr.live / text

‹ back to catalog

ASTRA 1L

NORAD 31306 · 2007-016A

PAYLOAD ACTIVE UNKNOWN

§ Identity

Operator
Country
SES
Launch date
2007-05-04
Launch site
FRGUI
Launch vehicle
Mass (kg)
RCS (m²)
18.34

Purposes: comms

External: N2YO · Heavens-Above · Gunter

§ Orbital elements

Epoch: 2026-05-25T03:33:28.768896Z

Period
1,436.08 min
Inclination
1.2646°
Eccentricity
0.0005102
Mean motion
1.00272980 rev/d
Perigee alt
35,764.7 km
Apogee alt
35,807.8 km
Semi-major
42,164.4 km
B*
0.0000e+0
RAAN
81.7455°
Arg perigee
350.4596°
Mean anomaly
199.3973°
Rev number
4,475

§ Raw data

ASTRA 1L1 31306U 07016A   26145.14824964 -.00000186  00000+0  00000+0 0  99972 31306   1.2646  81.7455 0005102 350.4596 199.3973  1.00272980 44754

JSON: /api/v1/satellites/31306 · /tle

For live sub-satellite position, see the globe view (requires WebGL).

§ Visibility from observer

Set your observer location to see the next 7 days of passes ≥ 10°. The values pass through the URL so the page stays shareable.

No JS? Fill the form by hand. The geolocation button needs JavaScript.